Regional Weather Roundup
Issued by NWS Spokane, WA

Home | Current Version | Previous Version | Text Only | Print | Product List | Glossary On
Versions: 1 2 3 4 5 6 7 8 9 10 11 12 13 14 15 16 17 18 19 20 21 22 23 24 25 26 27 28 29 30 31 32 33 34 35 36 37 38 39 40 41 42 43 44 45 46 47 48 49 50
865
NZUS01 KOTX 261725
RWROTX

Eastern Washington/Northern Idaho Roundup
National Weather Service, Spokane WA
1000 AM PDT FRI MAY 26 2017

Note: "fair" indicated few or no clouds below 12,000 feet with no
significant weather and/or obstructions to visibility.

...Northeast Washington and Northern Idaho Panhandle...

CITY           SKY/WX    TMP DP  RH WIND       PRES   REMARKS
Spokane Intl   MOSUNNY   62  41  46 VRB3      29.94F
Spokane Downto SUNNY     63  45  51 SW6       29.94F
Coeur d Alene  SUNNY     63  44  50 N7        29.94F
Deer Park      SUNNY     63  39  41 CALM      29.95S
Sandpoint      SUNNY     61  43  51 SE5       29.94F
Bonners Ferry  FAIR      59  45  58 SW3       29.95F

...Southeast Washington and southern Idaho Panhandle...

CITY           SKY/WX    TMP DP  RH WIND       PRES   REMARKS
Walla Walla    SUNNY     64  47  53 CALM      29.95S
Pullman/Moscow SUNNY     60  46  59 NW5       29.96S
Lewiston       SUNNY     62  46  55 VRB3      29.94R
Lowell           N/A     60  43  53 CALM      29.91F
Grangeville    FAIR      55  43  62 CALM      29.95R

...Columbia Basin...

CITY           SKY/WX    TMP DP  RH WIND       PRES   REMARKS
Ephrata        SUNNY     66  42  41 CALM      29.94R
Moses Lake     SUNNY     67  45  45 VRB5      29.95R
Pasco          SUNNY     66  46  48 CALM      29.95S
Richland       SUNNY     70  48  45 CALM      29.94F
Pendleton      MOSUNNY   63  46  54 CALM      29.96S

...East Slopes Cascades...

CITY           SKY/WX    TMP DP  RH WIND       PRES   REMARKS
The Dalles     SUNNY     65  48  54 N3        29.96S
Yakima         SUNNY     68  47  46 CALM      29.95S
Ellensburg     SUNNY     65  47  52 SE5       29.95F
Stampede Pass  SUNNY     58  40  51 VRB3      30.01R
Wenatchee      SUNNY     64  42  44 W10       29.94S
Omak           SUNNY     62  47  57 NE6       29.95F
Sunnyside      SUNNY     64  46  51 CALM      29.95S

...Southern British Columbia...

CITY           SKY/WX    TMP DP  RH WIND       PRES   REMARKS
Penticton      MOSUNNY   63  45  51 N3        29.94F
Castlegar      MOSUNNY   59  41  51 CALM      29.94F
Cranbrook      MOSUNNY   55  39  54 VRB5      29.96F
Osoyoos          N/A     63  45  51 S2          N/A
Creston          N/A     59  45  58 W2          N/A

...Western Montana...

CITY           SKY/WX    TMP DP  RH WIND       PRES   REMARKS
Kalispell      SUNNY     57  43  59 NE6       29.94F
Missoula       SUNNY     60  35  39 CALM      29.93F

...Neighboring Cities...

CITY           SKY/WX    TMP DP  RH WIND       PRES   REMARKS
Seattle        SUNNY     64  51  62 CALM      29.97S
Portland       SUNNY     63  51  65 VRB3      29.95S
Boise          PTSUNNY   58  43  57 NW7       29.89R
Great Falls    SUNNY     57  37  47 VRB5      29.95F
Calgary        MOSUNNY   61  28  29 NW6G20    29.87F



USA.gov is the U.S. government's official web portal to all federal, state and local government web resources and services.